Showing default

YAOGAN-30 A, 42945

Orbit data source: Space-Track

YAOGAN-30 A, 42945 is a payload satellite owned by PLA SSF (CN) in LEO that was launched on Fri, 29 Sep 2017 UTC via a CHANG ZHENG 2C launch vehicle from the Xichang Space Center, China (XSC). Payloads include a variety of satellites, spacecraft, and rockets equipped with specific instruments for various scientific and technological missions. These include communications satellites like Starlink; space stations such as the ISS; scientific satellites like the Hubble; Earth observation satellites from companies like Planet Labs, Umbra, and HawkEye 360; GPS; miniature CubeSats for education and research; and military/defense satellites.

Loading next visibility...
YAOGAN-30 A details
Identifier
42945, 2017-058A
Orbit
LEO
Last TLE update6 hours ago
Origin
Flag of CNPLA SSF (CN / PRC)
ManufacturerSECM
MissionOperational Defense Sigint
Bus & MotorUnknown
Mass~500 kg wet, ~500 kg dry
Launch date (UTC)
2017-09-29 (7 years ago)
Launch vehicle
CHANG ZHENG 2C
Launch site
Xichang Space Center, China (XSC)
Object type
Payload
Rocket body
Debris
Shape & HBRBox + 2 Pan, 1 m
Radar Cross Section0.446 m², Large (>1 m²)

Expand to show TLE details & history

TLE from 6 hours ago
0 YAOGAN-30 A
1 42945U 17058A   24361.18316923  .00007232  00000-0  60189-3 0  9995
2 42945  34.9987  58.9837 0003110 148.2824 211.8070 14.98028704395010
Epoch: 2024-12-26T04:23Z
Definitive object data (Epoch: 2024-12-26T04:23:45.821Z)
Latitude-0.00005°
Longitude-102.12351°
Altitude573.744 km
Speed7.575 km/s
True Right ascension03h 55m 56s
True Declination0° 00' 00"
Sunlit
Object was in full shadow at TLE epoch
Visualization TLE readout
Latitude11.76874°
Longitude59.27523°
Altitude568.999 km
Speed7.581 km/s
Apparent Right ascension17h 15m 39s
Apparent Declination-18° 53' 40"
Sunlit
Object is in daylight
Visualization observer readout
Local Sidereal Time09:15:11
Azimuth86.069° E
Elevation-34.882°
Doppler factor1
Orbital elements
Apogee altitude578.365 km
Perigee altitude574.04 km
Semi-major axis6,954.34 km
Eccentricity0.000311
Inclination34.9987°
RAAN58.9837°
Arg. of periapsis148.2824°
True anomaly211.78822°
Mean anomaly211.807°
Eccentric anomaly211.79761°
Mean motion3.74248 °/min
BSTAR0.00060189
Orbital period96.19 mins
Loading maneuver chart data...
Loading historical data...
Loading historical data...
Loading historical data...
Loading historical data...
Loading historical data...
Loading historical data...
Loading historical data...
Other satellites on launch #58 in the year 2017 (2017-09-29 UTC)

YAOGAN-30 A Visibility forecast

Observer location: undefined°, undefined

Span
Click to sort rows by Start time (UTC) header in descending order
Start Az.
Max El. time (UTC)
Max El. Az.
Max El.
End time (UTC)
End Az.
7 mins2024-12-26 11:10:05.988Z255.645° W2024-12-26 11:14:05.988Z182.678° SSW32.508°2024-12-26 11:17:05.988Z122.935° SE
5 mins2024-12-26 12:53:05.988Z236.631° WSW2024-12-26 12:55:05.988Z200.972° SSW19.566°2024-12-26 12:58:05.988Z154.514° SSE
5 mins2024-12-27 07:51:05.988Z193.085° SSW2024-12-27 07:53:05.988Z151.13° SSE22.149°2024-12-27 07:56:05.988Z106.706° ESE
6 mins2024-12-27 09:31:05.988Z238.047° WSW2024-12-27 09:34:05.988Z164.005° S33.278°2024-12-27 09:37:05.988Z109.184° ESE
|